User: anonymous   Login
Location: Launois
(49.6535°N, 4.5395°E)
Time: 21:04:05
(UTC+00:00)
Language:

Cosmos 1833 - Orbit

View from above orbital plane
View from above orbital plane
View from above satellite
View from above satellite

Ground track
Ground track

The orbit data is extracted from the following two-line orbital elements,

1 17589U 87027A   24206.20399906  .00000236  00000-0  15200-3 0  9998
2 17589  70.9153 133.4336 0021314  15.3495 344.8267 14.12958955926479
Epoch (UTC): 24 July 2024 04:53:45
Eccentricity: 0.0021314
inclination: 70.9153°
perigee height: 834 km
apogee height: 864 km
right ascension of ascending node: 133.4336°
argument of perigee: 15.3495°
revolutions per day: 14.12958955
mean anomaly at epoch: 344.8267°
orbit number at epoch: 92647

The dashed part of the orbit path shows where the satellite is in the earth's shadow,  

DLR